User: anonymous   Login
Location: Unspecified
(0.0000°N, 0.0000°E)
Time: 06:19:33
(UTC+00:00)
Language:

Oscar 16 - Orbit

View from above orbital plane
View from above orbital plane
View from above satellite
View from above satellite

Ground track
Ground track

The orbit data is extracted from the following two-line orbital elements,

1 20439U 90005D   18175.42116538 -.00000006 +00000-0 +14074-4 0  9991
2 20439 098.6487 118.0992 0011487 140.2750 332.8924 14.32725117484451
Epoch (UTC): 24 June 2018 10:06:28
Eccentricity: 0.0011487
inclination: 98.6487°
perigee height: 774 km
apogee height: 791 km
right ascension of ascending node: 118.0992°
argument of perigee: 140.2750°
revolutions per day: 14.32725117
mean anomaly at epoch: 332.8924°
orbit number at epoch: 48445

The dashed part of the orbit path shows where the satellite is in the earth's shadow,  

DLR